www.pogodaiklimat.ru

Погода и климат >> Архив погоды >> Россия >> Ханты-Мансийский АО >> Ханты-Мансийск


АРХИВ ПОГОДЫ в Ханты-Мансийске

Время (UTC), дата Ветер
(напр.,м/с)
 
Видим.   Явления Облачность Т
(С)
Тd
(С)
f
(%)
Тe
(С)
Тes
(С)
Комфортность P
(гПа)
Po
(гПа)
Тmin
(С)
Tmax
(С)
R
(мм)
R24
(мм)
S
(см)
15 13.07 В 3 10 км 9/0
[Cs]
+26.0 +16.2 55 +29 +30 душно 1015.7 1010.6 +27.6
18 13.07 ЮВ 3 10 км 3/0
[Cs]
+22.9 +16.8 68 +28 +28 душно 1015.3 1010.2
21 13.07 ЮВ 2 10 км ясно +21.0 +16.4 75 +25 +25 комфорт 1015.4 1010.3
00 14.07 ЮВ 2 10 км 8/0
[Cs]
+20.4 +16.8 80 +24 +25 комфорт 1015.3 1010.1
03 14.07 Ю 2 10 км 3/0
[Cs]
+25.5 +18.4 65 +30 +35 душно 1015.0 1009.9 +20.1
06 14.07 ЮВ 3 10 км 1/0
[Cs]
+28.7 +17.1 49 +32 +42 душно 1014.7 1009.7
09 14.07 Ю 3 10 км ясно +30.9 +15.5 39 +33 +43 душно 1013.5 1008.5
12 14.07 Ю 2 10 км ясно +31.4 +16.1 40 +34 +39 душно 1012.4 1007.4
15 14.07 Ю 2 10 км ясно +28.6 +16.7 49 +32 +33 душно 1012.1 1007.1 +31.5
18 14.07 Ю 1 10 км ясно +24.1 +17.1 65 +28 +28 душно 1012.0 1006.9
21 14.07 ЮВ 1 10 км ясно +21.5 +17.1 76 +25 +25 комфорт 1012.0 1006.9
00 15.07 Ю 2 10 км ясно +21.5 +17.4 77 +26 +26 душно 1012.3 1007.2
03 15.07 Ю 2 10 км ясно +25.3 +19.0 68 +30 +36 душно 1012.4 1007.3 +20.1
06 15.07 Ю 3 10 км 8/1 1000 м
[Cu hum Ci]
+29.1 +17.0 48 +33 +41 очень
душно
1011.7 1006.7
09 15.07 Ю 3 10 км 10/0
[Ci sp]
+30.1 +17.2 46 +34 +42 очень
душно
1011.2 1006.2
12 15.07 ЮВ 3 10 км 9/1 1000 м
[Cu hum As trans Cc]
+30.4 +19.6 52 +36 +38 очень
душно
1010.3 1005.3
15 15.07 В 2 10 км 9/0
[Ac trans Cc]
+28.1 +19.0 58 +33 +34 очень
душно
1009.6 1004.5 +31.0
18 15.07 ЮВ 2 10 км 8/0
[Cc]
+25.7 +19.3 68 +31 +31 очень
душно
1009.4 1004.4
21 15.07 ЮВ 1 10 км 8/0
[Cc]
+21.4 +16.4 73 +25 +25 комфорт 1009.3 1004.1
00 16.07 ЮВ 1 10 км 4/0
[Ac cast]
+19.7 +15.5 77 +23 +23 комфорт 1009.2 1004.0
03 16.07 ЮВ 3 10 км 9/0
[Ac trans Cc]
+23.3 +16.3 65 +28 +31 душно 1008.7 1003.6 +19.6
06 16.07 В 4 10 км 10/0
[Ci]
+27.6 +16.1 50 +31 +37 душно 1007.4 1002.4
09 16.07 В 4 10 км 4/0
[Ci fib]
+30.8 +15.3 39 +33 +40 душно 1006.6 1001.7
12 16.07 ЮВ 3 10 км 3/0
[Ci fib]
+31.2 +16.1 40 +34 +38 душно 1005.2 1000.2
15 16.07 В 2 10 км ясно +28.7 +16.6 48 +32 +33 душно 1004.6 999.6 +31.6
18 16.07 В 4 10 км 10/0
[Cs]
+25.1 +15.0 53 +28 +28 жарко 1004.4 999.3
21 16.07 В 2 10 км 6/6 1000 м
[Cu med, cong]
+22.5 +14.2 59 +26 +26 жарко 1003.7 998.6
00 17.07 ЮВ 3 10 км 10/4 1000 м
[Cu Sc Ci]
+20.3 +14.2 68 +23 +23 комфорт 1003.9 998.8
03 17.07 ЮВ 2 10 км 10/6 1000 м
[Cu Sc Ci]
+21.8 +16.0 70 +26 +27 душно 1004.0 998.9 +20.3
06 17.07 В 1 4000 м гроза, ливневой дождь 10/10 600 м
[Cb cap]
+19.6 +18.0 90 +23 +23 комфорт 1004.9 999.7 +19.6
09 17.07 З 2 10 км в посл. час ливневой дождь {гроза} 10/10 600 м
[Cb cap]
+20.7 +17.0 79 +25 +25 комфорт 1005.8 1000.7
12 17.07 ЮВ 1 10 км в посл. час ливневой дождь {гроза} 10/10 600 м
[Cb cap]
+20.8 +17.3 80 +26 +26 душно 1006.3 1001.2
15 17.07 З 2 10 км 3/3 600 м
[Sc]
+19.1 +12.7 66 +21 +21 комфорт 1007.3 1002.2 +23.9 16
18 17.07 штиль 0 10 км 8/8
[Sc]
+15.2 +12.4 83 +15 +15 по сезону 1007.8 1002.6
21 17.07 ЮЗ 1 10 км 10/10 600 м
[Sc]
+15.8 +12.2 79 +16 +16 по сезону 1007.4 1002.2
00 18.07 Ю 1 10 км 10/10 600 м
[Cb cap]
+15.4 +12.0 80 +16 +16 тепло 1008.0 1002.7
03 18.07 ЮЗ 2 10 км в посл. час ливневой дождь 10/10 600 м
[Cb cap]
+15.8 +11.2 74 +16 +16 по сезону 1008.6 1003.3 +13.1 0.0
06 18.07 Ю 1 10 км в посл. час ливневой дождь 10/10 600 м
[Cb cap]
+17.0 +12.1 73 +18 +18 по сезону 1009.1 1003.9
09 18.07 Ю 2 10 км 8/8 600 м
[Cb cap]
+19.8 +13.0 65 +22 +24 комфорт 1009.4 1004.2
12 18.07 штиль 0 10 км 9/9 600 м
[Cb cap]
+20.4 +13.4 64 +22 +23 комфорт 1009.9 1004.7
15 18.07 В 1 10 км 8/6 1000 м
[Sc diur, vesp Ac cast]
+18.9 +15.5 81 +21 +21 комфорт 1010.3 1005.1 +20.5 0.0
18 18.07 штиль 0 10 км местами туман поземный 1/0
[Ci fib]
+16.3 +14.2 87 +16 +16 по сезону 1010.6 1005.4
21 18.07 штиль 0 10 км местами туман поземный 6/0
[Ac cast Ci]
+13.6 +12.7 94 +13 +13 прохладно 1011.0 1005.7
00 19.07 штиль 0 10 км местами туман поземный 1/0
[Ci fib]
+16.3 +14.2 87 +16 +17 тепло 1010.6 1005.4
03 19.07 С 1 10 км ясно +20.4 +14.0 67 +24 +30 комфорт 1011.7 1006.5 +13.1
06 19.07 Ю 2 10 км 4/1 1000 м
[Cu hum Ci fib]
+22.3 +13.5 57 +25 +35 комфорт 1011.6 1006.5
09 19.07 В 2 10 км 4/1 1000 м
[Cu hum Ci fib]
+24.4 +14.6 54 +27 +37 жарко 1011.1 1006.0
12 19.07 С 1 10 км 1/0
[Ci fib]
+25.5 +16.1 56 +29 +34 душно 1011.2 1006.1
15 19.07 штиль 0 10 км 3/0
[Ci fib]
+22.8 +17.0 70 +28 +28 душно 1011.5 1006.4 +26.0
18 19.07 штиль 0 10 км туман поземный ясно +17.4 +16.2 93 +17 +17 по сезону 1012.2 1007.0
21 19.07 штиль 0 10 км туман поземный ясно +16.2 +15.3 94 +16 +16 по сезону 1012.7 1007.4
00 20.07 штиль 0 10 км туман поземный 1/0
[Ci fib]
+16.2 +15.4 95 +16 +17 тепло 1013.3 1008.1
03 20.07 В 1 10 км ясно +24.1 +17.1 65 +28 +34 душно 1013.3 1008.2 +15.5
06 20.07 ЮВ 2 10 км 1/0
[Ci fib]
+26.5 +15.0 49 +29 +41 жарко 1013.1 1008.0
09 20.07 ЮВ 1 10 км ясно +27.8 +13.7 42 +30 +43 жарко 1012.9 1007.8

 

Местоположение метеостанции Ханты-Мансийск (Ханты-Мансийский АО, Россия): широта 61.03 долгота 69.12 высота над уровнем моря 44 м.

В архиве по умолчанию представлена погода в Ханты-Мансийске за последнюю неделю. Архивные данные за месяц целиком и за предыдущие месяцы, начиная с января 2011 года, Вы можете получить, выбрав интересующий диапазон дат из раскрывающегося списка и нажав кнопку "Ввод!".


*Определитесь, кто Вы:
робот инопланетянин человек

Внимание! Время в таблицах - всемирное. Для получения местного времени необходимо прибавить поправку, которая равна 5 ч.

Смотрите также архив погоды в соседних городах и на ближайших метеорологических станциях:

Погода в Алтае (Ханты-Мансийский АО, Россия) (78 км)
Погода в Сытомино (Ханты-Мансийский АО, Россия) (121 км)
Погода в Талинке (Ханты-Мансийский АО, Россия) (153 км)
Погода в Демьянском (Тюменская область, Россия) (159 км)
Погода в Салыме (Ханты-Мансийский АО, Россия) (167 км)
Погода в Кондинском (Ханты-Мансийский АО, Россия) (180 км)
Погода в Нефтеюганске (Ханты-Мансийский АО, Россия) (188 км)
Погода в Увате (Тюменская область, Россия) (207 км)
Погода в Октябрьском (Ханты-Мансийский АО, Россия) (226 км)
Погода в Сургуте (Ханты-Мансийский АО, Россия) (233 км)

Пояснения к столбцам:

Ветер - указаны скорость ветра в м/с - средняя за 10 мин, порывы в срок и между сроками (в фигурных скобках) и направление, откуда дует ветер: С - северный, СВ - северо-восточный, В - восточный, ЮВ - юго-восточный, Ю - южный, ЮЗ - юго-западный, З - западный, СЗ - северо-западный.
Видимость - горизонтальная дальность видимости в метрах или километрах. При видимости от 1 до 10 км при отсутствии осадков обычно наблюдается дымка, при ухудшении видимости до 1 км и менее - туман. В сухую погоду видимость может ухудшаться дымом, пылью или мглою.
Явления - указаны атмосферные явления, наблюдавшиеся в срок или в последний час перед сроком; фигурными скобками обозначены явления, наблюдавшиеся между сроками (за 1-3 часа до срока); квадратными скобками обозначены град или гололедные отложения с указанием их диаметра в мм.
Облачность - указаны через наклонную черту общая и нижняя облачность в баллах и высота нижней границы облаков в метрах; квадратными скобками обозначены формы облаков: Ci - перистые, Cs - перисто-слоистые, Cc - перисто-кучевые, Ac - высококучевые, As - высокослоистые, Sc - слоисто-кучевые, Ns - слоисто-дождевые, Cu - кучевые, Cb - кучево-дождевые. Подробнее классификацию облаков см. в Атласе облаков (PDF).
T - Температура воздуха - температура, измеренная на высоте 2 м над землей.
Td - Температура точки росы - температура, при понижении до которой содержащийся в воздухе водяной пар достигнет насыщения.
f - Относительная влажность воздуха - влажноcть воздуха, измеренная на высоте 2 м над землей.
Te - Эффективная температура - температура, которую ощущает одетый по сезону человек в тени. Характеристика душности погоды. При расчете учитывается влияние влажности воздуха и скорости ветра на теплоощущения человека.
Tes - Эффективная температура на солнце - температура, которую ощущает человек, с поправкой на солнечный нагрев. Характеристика знойности погоды. Зависит от высоты солнца над горизонтом, облачности и скорости ветра. Ночью, в пасмурную погоду, а также при ветре 12 м/с и более поправка равна нулю.
P - Атмосферное давление - приведенное к уровню моря атмосферное давление.
Po - Атмосферное давление - измеренное на уровне метеостанции атмосферное давление.
Tmin - Минимальная температура - минимум температуры воздуха на высоте 2 м над землей.
Tmax - Максимальная температура - максимум температуры воздуха на высоте 2 м над землей.
R - Количество осадков - Количество выпавших осадков за период времени, мм. При наведении курсора мыши на число - период времени, за который выпало указанное количество осадков.
R24 - Количество осадков - Количество выпавших осадков за 24 часа, мм.
S - Снежный покров - Высота снежного покрова, см. При наведении курсора мыши на число - состояние снежного покрова и степень покрытия местности в баллах.